DESCRIPTION;VALUE
RECORDING NAME;Recording-20022019-120605;;;;
DATE (HH:MM:SS);20.02.19 12:06:05;;;;
TIME (HH:MM:SS);00:10:26;;;;
MAXIMUM;15.26 µS;;;;
MINIMUM;1.51 µS;;;;
DIFFERENCE MIN/MAX;13.75 µS;;;;
AVERAGE OF SESSION;4.38 µS;;;;
TIME INCREASE (HH:MM:SS);00:01:05;;;;
TIME STEADY (HH:MM:SS);00:00:21;;;;
TIME DECREASE (HH:MM:SS);00:08:59;;;;
;;;;;
TOTAL SCR;18;;;;
% of SCR OF SESSION;13.4%;;;;
0-5 SCR/MIN (HH:MM:SS);00:09:29;;;;
6-9 SCR/MIN (HH:MM:SS);00:00:57;;;;
10-15 SCR/MIN (HH:MM:SS);00:00:02;;;;
>16 SCR/MIN (HH:MM:SS);00:00:00;;;;
;;;;;
What is your position?;Lying;;;;
Electrode type:;Gel Electrodes;;;;
How do you feel?;9;;;;
;;;;;
STATISTICS;;;;;
SECOND;MICROSIEMENS;TIMESTAMP;SCR;SCR/MIN;MARKER
0.0;14.75;12:06:05:195;;0;
1.0;14.42;12:06:06:195;;0;
2.0;14.16;12:06:07:195;;0;
3.0;13.86;12:06:08:195;;0;
4.0;13.60;12:06:09:195;;0;
5.0;13.36;12:06:10:195;;0;
6.0;13.16;12:06:11:195;;0;
7.0;12.95;12:06:12:195;;0;
8.0;12.75;12:06:13:195;;0;
9.0;12.56;12:06:14:195;;0;
10.0;12.40;12:06:15:195;;0;
11.0;12.22;12:06:16:195;;0;
12.0;12.05;12:06:17:195;;0;
13.0;11.87;12:06:18:195;;0;
14.0;11.71;12:06:19:195;;0;
15.0;11.53;12:06:20:195;;0;
16.0;11.37;12:06:21:195;;0;
17.0;11.21;12:06:22:195;;0;
18.0;11.07;12:06:23:195;;0;
19.0;10.94;12:06:24:195;;0;
20.0;10.91;12:06:25:195;;0;
21.0;10.79;12:06:26:195;;0;
22.0;10.63;12:06:27:195;;0;
23.0;10.48;12:06:28:195;;0;
24.0;10.32;12:06:29:195;;0;
25.0;10.20;12:06:30:195;;0;
26.0;10.07;12:06:31:195;;0;
27.0;9.92;12:06:32:195;;0;
28.0;9.77;12:06:33:195;;0;
29.0;9.64;12:06:34:195;;0;
30.0;9.54;12:06:35:195;;0;
31.0;9.48;12:06:36:195;;0;
32.0;9.32;12:06:37:195;;0;
33.0;9.18;12:06:38:195;;0;
34.0;9.04;12:06:39:195;;0;
35.0;8.92;12:06:40:195;;0;
36.0;8.78;12:06:41:195;;0;
37.0;8.66;12:06:42:195;;0;
38.0;8.54;12:06:43:195;;0;
39.0;8.41;12:06:44:195;;0;
40.0;8.26;12:06:45:195;;0;
41.0;8.13;12:06:46:195;;0;
42.0;8.01;12:06:47:195;;0;
43.0;7.88;12:06:48:195;;0;
44.0;7.74;12:06:49:195;;0;
45.0;7.62;12:06:50:195;;0;
46.0;7.47;12:06:51:195;;0;
47.0;7.36;12:06:52:195;;0;
48.0;7.23;12:06:53:195;;0;
49.0;7.14;12:06:54:195;;0;
50.0;7.11;12:06:55:195;;0;
51.0;7.15;12:06:56:195;;0;
52.0;7.05;12:06:57:195;;0;
53.0;6.96;12:06:58:195;;0;
54.0;7.11;12:06:59:195;;0;
55.0;7.36;12:07:00:195;;0;
56.0;8.05;12:07:01:195;;0;
57.0;8.34;12:07:02:195;;0;
58.0;8.37;12:07:03:195;;0;
59.0;8.69;12:07:04:195;1;0;
60.0;8.69;12:07:05:195;1;0;
61.0;9.09;12:07:06:195;1;0;
62.0;9.35;12:07:07:195;1;0;
63.0;9.37;12:07:08:195;1;1;
64.0;9.20;12:07:09:195;1;1;
65.0;8.99;12:07:10:195;1;2;
66.0;8.91;12:07:11:195;1;2;
67.0;8.82;12:07:12:195;1;2;
68.0;8.71;12:07:13:195;1;3;
69.0;8.63;12:07:14:195;1;4;
70.0;8.54;12:07:15:195;1;4;
71.0;8.41;12:07:16:195;1;4;
72.0;8.33;12:07:17:195;1;4;
73.0;8.23;12:07:18:195;1;4;
74.0;8.09;12:07:19:195;;4;
75.0;8.87;12:07:20:195;;4;
76.0;9.30;12:07:21:195;;4;
77.0;10.26;12:07:22:195;;4;
78.0;10.46;12:07:23:195;;4;
79.0;10.68;12:07:24:195;;4;
80.0;10.67;12:07:25:195;1;4;
81.0;10.30;12:07:26:195;1;4;
82.0;10.59;12:07:27:195;1;4;
83.0;10.59;12:07:28:195;1;4;
84.0;10.25;12:07:29:195;1;5;
85.0;10.10;12:07:30:195;1;6;
86.0;10.04;12:07:31:195;1;6;
87.0;9.96;12:07:32:195;1;6;
88.0;10.00;12:07:33:195;1;6;
89.0;9.93;12:07:34:195;1;6;
90.0;9.79;12:07:35:195;1;6;
91.0;9.70;12:07:36:195;;6;
92.0;9.64;12:07:37:195;;6;
93.0;9.59;12:07:38:195;;6;
94.0;9.52;12:07:39:195;;6;
95.0;9.45;12:07:40:195;;6;
96.0;9.36;12:07:41:195;;6;
97.0;9.56;12:07:42:195;;6;
98.0;9.71;12:07:43:195;;6;
99.0;9.55;12:07:44:195;;6;
100.0;9.46;12:07:45:195;;6;
101.0;9.39;12:07:46:195;;6;
102.0;9.32;12:07:47:195;1;6;
103.0;9.35;12:07:48:195;1;6;
104.0;9.77;12:07:49:195;;7;
105.0;10.25;12:07:50:195;;7;
106.0;11.72;12:07:51:195;;7;
107.0;11.47;12:07:52:195;;7;
108.0;12.15;12:07:53:195;1;7;
109.0;12.14;12:07:54:195;1;8;
110.0;11.55;12:07:55:195;1;8;
111.0;11.23;12:07:56:195;1;8;
112.0;11.02;12:07:57:195;1;9;
113.0;10.92;12:07:58:195;1;9;
114.0;10.80;12:07:59:195;1;10;
115.0;10.73;12:08:00:195;1;10;
116.0;10.61;12:08:01:195;1;10;
117.0;10.50;12:08:02:195;1;10;
118.0;10.42;12:08:03:195;;10;
119.0;10.44;12:08:04:195;;10;
120.0;10.39;12:08:05:195;;10;
121.0;10.37;12:08:06:195;;10;
122.0;10.42;12:08:07:195;;10;
123.0;10.59;12:08:08:195;;9;
124.0;10.51;12:08:09:195;;9;
125.0;10.36;12:08:10:195;;8;
126.0;10.27;12:08:11:195;;8;
127.0;10.17;12:08:12:195;1;8;
128.0;10.11;12:08:13:195;;7;
129.0;10.03;12:08:14:195;;8;
130.0;9.98;12:08:15:195;;7;
131.0;9.94;12:08:16:195;;7;
132.0;9.86;12:08:17:195;;7;
133.0;9.77;12:08:18:195;;7;
134.0;9.68;12:08:19:195;;7;
135.0;9.59;12:08:20:195;;7;
136.0;9.52;12:08:21:195;;7;
137.0;9.44;12:08:22:195;;7;
138.0;9.36;12:08:23:195;;7;
139.0;9.29;12:08:24:195;;7;
140.0;9.19;12:08:25:195;;7;
141.0;9.10;12:08:26:195;;7;
142.0;9.02;12:08:27:195;;7;
143.0;8.93;12:08:28:195;;7;
144.0;8.84;12:08:29:195;;6;
145.0;8.74;12:08:30:195;;5;
146.0;8.66;12:08:31:195;;5;
147.0;8.55;12:08:32:195;;5;
148.0;8.45;12:08:33:195;;5;
149.0;8.36;12:08:34:195;;5;
150.0;8.27;12:08:35:195;;5;
151.0;8.16;12:08:36:195;;5;
152.0;8.07;12:08:37:195;;5;
153.0;8.00;12:08:38:195;;5;
154.0;7.91;12:08:39:195;;5;
155.0;7.80;12:08:40:195;;5;
156.0;7.70;12:08:41:195;;5;
157.0;7.62;12:08:42:195;;5;
158.0;7.51;12:08:43:195;;5;
159.0;7.41;12:08:44:195;;5;
160.0;7.33;12:08:45:195;;5;
161.0;7.22;12:08:46:195;;5;
162.0;7.19;12:08:47:195;;5;
163.0;7.13;12:08:48:195;;5;
164.0;7.04;12:08:49:195;;4;
165.0;6.95;12:08:50:195;;4;
166.0;6.92;12:08:51:195;;4;
167.0;6.85;12:08:52:195;;4;
168.0;6.75;12:08:53:195;;4;
169.0;6.65;12:08:54:195;;4;
170.0;6.54;12:08:55:195;;3;
171.0;6.45;12:08:56:195;;3;
172.0;6.36;12:08:57:195;;2;
173.0;6.27;12:08:58:195;;2;
174.0;6.38;12:08:59:195;;1;
175.0;6.57;12:09:00:195;;1;
176.0;6.47;12:09:01:195;;1;
177.0;6.38;12:09:02:195;;1;
178.0;6.37;12:09:03:195;1;1;
179.0;6.28;12:09:04:195;1;1;
180.0;6.19;12:09:05:195;1;2;
181.0;6.12;12:09:06:195;;2;
182.0;6.05;12:09:07:195;;2;
183.0;5.96;12:09:08:195;;2;
184.0;5.88;12:09:09:195;;2;
185.0;5.82;12:09:10:195;;2;
186.0;5.76;12:09:11:195;;2;
187.0;5.68;12:09:12:195;;2;
188.0;5.61;12:09:13:195;;2;
189.0;5.54;12:09:14:195;;1;
190.0;5.47;12:09:15:195;;1;
191.0;5.41;12:09:16:195;;1;
192.0;5.34;12:09:17:195;;1;
193.0;5.26;12:09:18:195;;1;
194.0;5.19;12:09:19:195;;1;
195.0;5.13;12:09:20:195;;1;
196.0;5.06;12:09:21:195;;1;
197.0;4.99;12:09:22:195;;1;
198.0;4.91;12:09:23:195;;1;
199.0;4.86;12:09:24:195;;1;
200.0;4.78;12:09:25:195;;1;
201.0;4.71;12:09:26:195;;1;
202.0;4.63;12:09:27:195;;1;
203.0;4.57;12:09:28:195;;1;
204.0;4.50;12:09:29:195;;1;
205.0;4.44;12:09:30:195;;1;
206.0;4.37;12:09:31:195;;1;
207.0;4.31;12:09:32:195;;1;
208.0;4.23;12:09:33:195;;1;
209.0;4.19;12:09:34:195;;1;
210.0;4.12;12:09:35:195;;1;
211.0;4.06;12:09:36:195;;1;
212.0;4.00;12:09:37:195;;1;
213.0;3.94;12:09:38:195;;1;
214.0;3.88;12:09:39:195;;1;
215.0;3.83;12:09:40:195;;1;
216.0;3.76;12:09:41:195;;1;
217.0;3.71;12:09:42:195;;1;
218.0;3.67;12:09:43:195;;1;
219.0;3.61;12:09:44:195;;1;
220.0;3.56;12:09:45:195;;1;
221.0;3.52;12:09:46:195;;1;
222.0;3.48;12:09:47:195;;1;
223.0;3.42;12:09:48:195;;1;
224.0;3.38;12:09:49:195;;1;
225.0;3.33;12:09:50:195;;1;
226.0;3.29;12:09:51:195;;1;
227.0;3.24;12:09:52:195;;1;
228.0;3.20;12:09:53:195;;1;
229.0;3.16;12:09:54:195;;1;
230.0;3.12;12:09:55:195;;1;
231.0;3.08;12:09:56:195;;1;
232.0;3.04;12:09:57:195;;1;
233.0;3.01;12:09:58:195;;1;
234.0;2.98;12:09:59:195;;1;
235.0;2.94;12:10:00:195;;1;
236.0;2.91;12:10:01:195;;1;
237.0;2.88;12:10:02:195;;1;
238.0;2.86;12:10:03:195;;1;
239.0;2.82;12:10:04:195;;1;
240.0;2.80;12:10:05:195;;0;
241.0;2.77;12:10:06:195;;0;
242.0;2.74;12:10:07:195;;0;
243.0;2.72;12:10:08:195;;0;
244.0;2.69;12:10:09:195;;0;
245.0;2.66;12:10:10:195;;0;
246.0;2.64;12:10:11:195;;0;
247.0;2.61;12:10:12:195;;0;
248.0;2.58;12:10:13:195;;0;
249.0;2.56;12:10:14:195;;0;
250.0;2.54;12:10:15:195;;0;
251.0;2.51;12:10:16:195;;0;
252.0;2.49;12:10:17:195;;0;
253.0;2.47;12:10:18:195;;0;
254.0;2.45;12:10:19:195;;0;
255.0;2.43;12:10:20:195;;0;
256.0;2.40;12:10:21:195;;0;
257.0;2.39;12:10:22:195;;0;
258.0;2.37;12:10:23:195;;0;
259.0;2.35;12:10:24:195;;0;
260.0;2.33;12:10:25:195;;0;
261.0;2.31;12:10:26:195;;0;
262.0;2.29;12:10:27:195;;0;
263.0;2.27;12:10:28:195;;0;
264.0;2.25;12:10:29:195;;0;
265.0;2.23;12:10:30:195;;0;
266.0;2.21;12:10:31:195;;0;
267.0;2.20;12:10:32:195;;0;
268.0;2.18;12:10:33:195;;0;
269.0;2.17;12:10:34:195;;0;
270.0;2.15;12:10:35:195;;0;
271.0;2.13;12:10:36:195;;0;
272.0;2.12;12:10:37:195;;0;
273.0;2.10;12:10:38:195;;0;
274.0;2.09;12:10:39:195;;0;
275.0;2.07;12:10:40:195;;0;
276.0;2.05;12:10:41:195;;0;
277.0;2.04;12:10:42:195;;0;
278.0;2.03;12:10:43:195;;0;
279.0;2.01;12:10:44:195;;0;
280.0;2.00;12:10:45:195;;0;
281.0;1.98;12:10:46:195;;0;
282.0;1.97;12:10:47:195;;0;
283.0;1.96;12:10:48:195;;0;
284.0;1.94;12:10:49:195;;0;
285.0;1.93;12:10:50:195;;0;
286.0;1.92;12:10:51:195;;0;
287.0;1.92;12:10:52:195;;0;
288.0;1.92;12:10:53:195;;0;
289.0;1.90;12:10:54:195;;0;
290.0;1.89;12:10:55:195;;0;
291.0;1.88;12:10:56:195;;0;
292.0;1.88;12:10:57:195;;0;
293.0;1.87;12:10:58:195;;0;
294.0;1.85;12:10:59:195;;0;
295.0;1.85;12:11:00:195;;0;
296.0;1.84;12:11:01:195;;0;
297.0;1.83;12:11:02:195;;0;
298.0;1.82;12:11:03:195;;0;
299.0;1.81;12:11:04:195;;0;
300.0;1.80;12:11:05:195;;0;
301.0;1.79;12:11:06:195;;0;
302.0;1.78;12:11:07:195;;0;
303.0;1.77;12:11:08:195;;0;
304.0;1.76;12:11:09:195;;0;
305.0;1.75;12:11:10:195;;0;
306.0;1.75;12:11:11:195;;0;
307.0;1.74;12:11:12:195;;0;
308.0;1.73;12:11:13:195;;0;
309.0;1.72;12:11:14:195;;0;
310.0;1.72;12:11:15:195;;0;
311.0;1.71;12:11:16:195;;0;
312.0;1.70;12:11:17:195;;0;
313.0;1.69;12:11:18:195;;0;
314.0;1.69;12:11:19:195;;0;
315.0;1.69;12:11:20:195;;0;
316.0;1.68;12:11:21:195;;0;
317.0;1.68;12:11:22:195;;0;
318.0;1.67;12:11:23:195;;0;
319.0;1.66;12:11:24:195;;0;
320.0;1.65;12:11:25:195;;0;
321.0;1.65;12:11:26:195;;0;
322.0;1.64;12:11:27:195;;0;
323.0;1.63;12:11:28:195;;0;
324.0;1.64;12:11:29:195;;0;
325.0;1.65;12:11:30:195;;0;
326.0;1.64;12:11:31:195;;0;
327.0;1.63;12:11:32:195;;0;
328.0;1.63;12:11:33:195;;0;
329.0;1.62;12:11:34:195;;0;
330.0;1.61;12:11:35:195;;0;
331.0;1.61;12:11:36:195;;0;
332.0;1.60;12:11:37:195;;0;
333.0;1.60;12:11:38:195;;0;
334.0;1.59;12:11:39:195;;0;
335.0;1.58;12:11:40:195;;0;
336.0;1.58;12:11:41:195;;0;
337.0;1.57;12:11:42:195;;0;
338.0;1.57;12:11:43:195;;0;
339.0;1.56;12:11:44:195;;0;
340.0;1.56;12:11:45:195;;0;
341.0;1.55;12:11:46:195;;0;
342.0;1.54;12:11:47:195;;0;
343.0;1.54;12:11:48:195;;0;
344.0;1.53;12:11:49:195;;0;
345.0;1.53;12:11:50:195;;0;
346.0;1.52;12:11:51:195;;0;
347.0;1.52;12:11:52:195;;0;
348.0;1.52;12:11:53:195;;0;
349.0;1.53;12:11:54:195;;0;
350.0;1.54;12:11:55:195;;0;
351.0;1.53;12:11:56:195;;0;
352.0;1.53;12:11:57:195;;0;
353.0;1.52;12:11:58:195;;0;
354.0;1.52;12:11:59:195;;0;
355.0;1.52;12:12:00:195;;0;
356.0;1.51;12:12:01:195;;0;
357.0;1.51;12:12:02:195;;0;
358.0;1.52;12:12:03:195;;0;
359.0;1.52;12:12:04:195;;0;
360.0;1.54;12:12:05:195;;0;
361.0;1.60;12:12:06:195;;0;
362.0;1.63;12:12:07:195;;0;
363.0;1.65;12:12:08:195;;0;
364.0;1.69;12:12:09:195;;0;
365.0;1.70;12:12:10:195;;0;
366.0;1.72;12:12:11:195;;0;
367.0;1.74;12:12:12:195;;0;
368.0;1.77;12:12:13:195;1;0;
369.0;1.77;12:12:14:195;1;0;
370.0;1.77;12:12:15:195;1;0;
371.0;1.77;12:12:16:195;1;0;
372.0;1.78;12:12:17:195;1;0;
373.0;1.78;12:12:18:195;1;1;
374.0;1.77;12:12:19:195;1;1;
375.0;1.76;12:12:20:195;1;1;
376.0;1.76;12:12:21:195;1;1;
377.0;1.75;12:12:22:195;1;1;
378.0;1.74;12:12:23:195;;1;
379.0;1.74;12:12:24:195;;1;
380.0;1.73;12:12:25:195;;1;
381.0;1.73;12:12:26:195;;1;
382.0;1.72;12:12:27:195;;1;
383.0;1.71;12:12:28:195;;1;
384.0;1.71;12:12:29:195;;1;
385.0;1.72;12:12:30:195;;1;
386.0;1.71;12:12:31:195;;1;
387.0;1.70;12:12:32:195;;1;
388.0;1.70;12:12:33:195;;1;
389.0;1.69;12:12:34:195;;1;
390.0;1.69;12:12:35:195;;1;
391.0;1.69;12:12:36:195;;1;
392.0;1.69;12:12:37:195;;1;
393.0;1.93;12:12:38:195;;1;
394.0;2.08;12:12:39:195;;1;
395.0;2.18;12:12:40:195;;1;
396.0;2.24;12:12:41:195;;1;
397.0;2.24;12:12:42:195;1;1;
398.0;2.28;12:12:43:195;1;1;
399.0;2.27;12:12:44:195;1;1;
400.0;2.26;12:12:45:195;1;1;
401.0;2.25;12:12:46:195;1;2;
402.0;2.27;12:12:47:195;1;2;
403.0;2.25;12:12:48:195;1;3;
404.0;2.26;12:12:49:195;1;3;
405.0;2.30;12:12:50:195;1;3;
406.0;2.29;12:12:51:195;1;3;
407.0;2.28;12:12:52:195;1;3;
408.0;2.29;12:12:53:195;1;3;
409.0;2.29;12:12:54:195;;3;
410.0;2.29;12:12:55:195;;3;
411.0;2.29;12:12:56:195;;3;
412.0;2.28;12:12:57:195;;3;
413.0;2.28;12:12:58:195;;3;
414.0;2.27;12:12:59:195;;3;
415.0;2.30;12:13:00:195;;3;
416.0;2.33;12:13:01:195;;3;
417.0;2.33;12:13:02:195;;3;
418.0;2.32;12:13:03:195;;3;
419.0;2.31;12:13:04:195;;3;
420.0;2.42;12:13:05:195;;3;
421.0;2.38;12:13:06:195;;3;
422.0;2.34;12:13:07:195;;3;
423.0;2.35;12:13:08:195;1;3;
424.0;2.35;12:13:09:195;1;3;
425.0;2.33;12:13:10:195;;4;
426.0;2.32;12:13:11:195;;4;
427.0;2.32;12:13:12:195;;4;
428.0;2.31;12:13:13:195;;4;
429.0;2.30;12:13:14:195;;4;
430.0;2.30;12:13:15:195;;4;
431.0;2.29;12:13:16:195;;4;
432.0;2.28;12:13:17:195;;4;
433.0;2.28;12:13:18:195;;3;
434.0;2.27;12:13:19:195;;3;
435.0;2.45;12:13:20:195;;3;
436.0;2.50;12:13:21:195;;3;
437.0;2.42;12:13:22:195;;3;
438.0;2.43;12:13:23:195;;3;
439.0;2.47;12:13:24:195;1;3;
440.0;2.40;12:13:25:195;1;3;
441.0;2.33;12:13:26:195;1;4;
442.0;2.30;12:13:27:195;1;4;
443.0;2.31;12:13:28:195;1;4;
444.0;2.39;12:13:29:195;1;4;
445.0;2.42;12:13:30:195;;4;
446.0;2.45;12:13:31:195;;4;
447.0;2.50;12:13:32:195;;4;
448.0;2.53;12:13:33:195;;4;
449.0;2.52;12:13:34:195;;4;
450.0;2.52;12:13:35:195;;4;
451.0;2.53;12:13:36:195;;4;
452.0;2.53;12:13:37:195;;4;
453.0;2.53;12:13:38:195;;4;
454.0;2.53;12:13:39:195;;4;
455.0;2.53;12:13:40:195;;4;
456.0;2.53;12:13:41:195;;4;
457.0;2.54;12:13:42:195;;4;
458.0;2.55;12:13:43:195;;4;
459.0;2.54;12:13:44:195;;4;
460.0;2.53;12:13:45:195;;4;
461.0;2.53;12:13:46:195;;3;
462.0;2.52;12:13:47:195;;3;
463.0;2.51;12:13:48:195;;2;
464.0;2.50;12:13:49:195;;2;
465.0;2.50;12:13:50:195;;2;
466.0;2.50;12:13:51:195;;2;
467.0;2.50;12:13:52:195;;2;
468.0;2.51;12:13:53:195;;2;
469.0;2.51;12:13:54:195;;2;
470.0;2.51;12:13:55:195;;2;
471.0;2.50;12:13:56:195;;2;
472.0;2.49;12:13:57:195;;2;
473.0;2.48;12:13:58:195;;2;
474.0;2.47;12:13:59:195;;2;
475.0;2.46;12:14:00:195;;2;
476.0;2.45;12:14:01:195;;2;
477.0;2.45;12:14:02:195;;2;
478.0;2.43;12:14:03:195;;2;
479.0;2.42;12:14:04:195;;2;
480.0;2.41;12:14:05:195;;2;
481.0;2.40;12:14:06:195;;2;
482.0;2.39;12:14:07:195;;2;
483.0;2.39;12:14:08:195;;2;
484.0;2.37;12:14:09:195;;2;
485.0;2.36;12:14:10:195;;1;
486.0;2.35;12:14:11:195;;1;
487.0;2.34;12:14:12:195;;1;
488.0;2.33;12:14:13:195;;1;
489.0;2.31;12:14:14:195;;1;
490.0;2.30;12:14:15:195;;1;
491.0;2.29;12:14:16:195;;1;
492.0;2.28;12:14:17:195;;1;
493.0;2.26;12:14:18:195;;1;
494.0;2.25;12:14:19:195;;1;
495.0;2.23;12:14:20:195;;1;
496.0;2.21;12:14:21:195;;1;
497.0;2.19;12:14:22:195;;1;
498.0;2.18;12:14:23:195;;1;
499.0;2.17;12:14:24:195;;1;
500.0;2.15;12:14:25:195;;1;
501.0;2.14;12:14:26:195;;0;
502.0;2.12;12:14:27:195;;0;
503.0;2.10;12:14:28:195;;0;
504.0;2.09;12:14:29:195;;0;
505.0;2.07;12:14:30:195;;0;
506.0;2.05;12:14:31:195;;0;
507.0;2.04;12:14:32:195;;0;
508.0;2.02;12:14:33:195;;0;
509.0;2.00;12:14:34:195;;0;
510.0;1.99;12:14:35:195;;0;
511.0;1.97;12:14:36:195;;0;
512.0;1.95;12:14:37:195;;0;
513.0;1.94;12:14:38:195;;0;
514.0;1.92;12:14:39:195;;0;
515.0;1.90;12:14:40:195;;0;
516.0;1.88;12:14:41:195;;0;
517.0;1.87;12:14:42:195;;0;
518.0;1.85;12:14:43:195;;0;
519.0;1.83;12:14:44:195;;0;
520.0;1.82;12:14:45:195;;0;
521.0;1.80;12:14:46:195;;0;
522.0;1.79;12:14:47:195;;0;
523.0;1.78;12:14:48:195;;0;
524.0;1.77;12:14:49:195;;0;
525.0;1.77;12:14:50:195;;0;
526.0;1.79;12:14:51:195;;0;
527.0;1.79;12:14:52:195;;0;
528.0;1.79;12:14:53:195;;0;
529.0;1.78;12:14:54:195;;0;
530.0;1.77;12:14:55:195;;0;
531.0;1.76;12:14:56:195;;0;
532.0;1.75;12:14:57:195;;0;
533.0;1.75;12:14:58:195;;0;
534.0;1.78;12:14:59:195;;0;
535.0;1.80;12:15:00:195;;0;
536.0;1.83;12:15:01:195;;0;
537.0;1.99;12:15:02:195;;0;
538.0;2.14;12:15:03:195;;0;
539.0;2.33;12:15:04:195;;0;
540.0;2.47;12:15:05:195;;0;
541.0;2.52;12:15:06:195;1;0;
542.0;2.47;12:15:07:195;1;0;
543.0;2.45;12:15:08:195;1;0;
544.0;2.44;12:15:09:195;1;0;
545.0;2.42;12:15:10:195;1;0;
546.0;2.42;12:15:11:195;1;1;
547.0;2.41;12:15:12:195;1;1;
548.0;2.39;12:15:13:195;1;1;
549.0;2.37;12:15:14:195;1;1;
550.0;2.37;12:15:15:195;1;1;
551.0;2.37;12:15:16:195;;1;
552.0;2.37;12:15:17:195;;1;
553.0;2.36;12:15:18:195;;1;
554.0;2.36;12:15:19:195;;1;
555.0;2.35;12:15:20:195;;1;
556.0;2.36;12:15:21:195;;1;
557.0;2.35;12:15:22:195;;1;
558.0;2.35;12:15:23:195;;1;
559.0;2.34;12:15:24:195;;1;
560.0;2.32;12:15:25:195;;1;
561.0;2.31;12:15:26:195;;1;
562.0;2.30;12:15:27:195;;1;
563.0;2.29;12:15:28:195;;1;
564.0;2.27;12:15:29:195;;1;
565.0;2.26;12:15:30:195;;1;
566.0;2.25;12:15:31:195;;1;
567.0;2.24;12:15:32:195;;1;
568.0;2.23;12:15:33:195;;1;
569.0;2.21;12:15:34:195;;1;
570.0;2.20;12:15:35:195;;1;
571.0;2.17;12:15:36:195;;1;
572.0;2.15;12:15:37:195;;1;
573.0;2.14;12:15:38:195;;1;
574.0;2.13;12:15:39:195;;1;
575.0;2.12;12:15:40:195;;1;
576.0;2.10;12:15:41:195;;1;
577.0;2.09;12:15:42:195;;1;
578.0;2.07;12:15:43:195;;1;
579.0;2.05;12:15:44:195;;1;
580.0;2.03;12:15:45:195;;1;
581.0;2.01;12:15:46:195;;1;
582.0;1.99;12:15:47:195;;1;
583.0;1.98;12:15:48:195;;1;
584.0;1.96;12:15:49:195;;1;
585.0;1.93;12:15:50:195;;1;
586.0;1.92;12:15:51:195;;1;
587.0;1.90;12:15:52:195;;1;
588.0;1.92;12:15:53:195;;1;
589.0;1.93;12:15:54:195;;1;
590.0;1.96;12:15:55:195;;1;
591.0;1.93;12:15:56:195;;1;
592.0;1.94;12:15:57:195;;1;
593.0;1.97;12:15:58:195;;1;
594.0;1.95;12:15:59:195;;1;
595.0;1.94;12:16:00:195;;1;
596.0;1.94;12:16:01:195;;1;
597.0;1.93;12:16:02:195;;1;
598.0;1.92;12:16:03:195;;1;
599.0;1.90;12:16:04:195;;1;
600.0;1.90;12:16:05:195;;1;
601.0;1.90;12:16:06:195;;1;
602.0;1.89;12:16:07:195;;1;
603.0;1.88;12:16:08:195;;1;
604.0;1.87;12:16:09:195;;1;
605.0;1.86;12:16:10:195;;1;
606.0;1.84;12:16:11:195;;0;
607.0;1.84;12:16:12:195;;0;
608.0;1.82;12:16:13:195;;0;
609.0;1.81;12:16:14:195;;0;
610.0;1.80;12:16:15:195;;0;
611.0;1.79;12:16:16:195;;0;
612.0;1.77;12:16:17:195;;0;
613.0;1.76;12:16:18:195;;0;
614.0;1.75;12:16:19:195;;0;
615.0;1.73;12:16:20:195;;0;
616.0;1.72;12:16:21:195;;0;
617.0;1.71;12:16:22:195;;0;
618.0;1.70;12:16:23:195;;0;
619.0;1.69;12:16:24:195;;0;
620.0;1.67;12:16:25:195;;0;
621.0;1.65;12:16:26:195;;0;
622.0;1.65;12:16:27:195;;0;
623.0;1.63;12:16:28:195;;0;
624.0;1.63;12:16:29:195;;0;
625.0;1.77;12:16:30:195;;0;